TimeCDT,TemperatureF,Dew PointF,Humidity,Sea Level PressureIn,VisibilityMPH,Wind Direction,Wind SpeedMPH,Gust SpeedMPH,PrecipitationIn,Events,Conditions,WindDirDegrees,DateUTC
12:55 AM,43.2,34.0,70,30.32,10.0,WNW,6.9,-,N/A,,Clear,290,2013-03-15 05:55:00
1:55 AM,41.9,34.7,76,30.30,10.0,NW,2.3,-,N/A,,Clear,310,2013-03-15 06:55:00
2:55 AM,40.5,33.8,77,30.30,10.0,NW,3.5,-,N/A,,Clear,320,2013-03-15 07:55:00
3:55 AM,39.0,32.0,76,30.28,10.0,NW,3.5,-,N/A,,Clear,320,2013-03-15 08:55:00
4:55 AM,39.7,31.3,72,30.29,10.0,NW,3.5,-,N/A,,Clear,320,2013-03-15 09:55:00
5:55 AM,38.8,31.8,76,30.29,10.0,NW,2.3,-,N/A,,Clear,320,2013-03-15 10:55:00
6:55 AM,39.2,32.7,78,30.30,10.0,NW,3.5,-,N/A,,Clear,310,2013-03-15 11:55:00
7:55 AM,45.9,37.6,73,30.31,10.0,Calm,Calm,-,N/A,,Clear,0,2013-03-15 12:55:00
8:56 AM,56.7,42.8,60,30.31,10.0,WNW,6.9,-,N/A,,Clear,290,2013-03-15 13:56:00
9:56 AM,62.2,36.5,38,30.32,10.0,West,6.9,-,N/A,,Clear,270,2013-03-15 14:56:00
10:56 AM,65.7,38.5,37,30.31,10.0,South,8.1,-,N/A,,Clear,170,2013-03-15 15:56:00
11:20 AM,66.2,32.0,28,30.30,10.0,South,10.4,-,N/A,,Clear,180,2013-03-15 16:20:00
11:55 AM,65.5,40.1,39,30.28,10.0,South,12.7,-,N/A,,Partly Cloudy,190,2013-03-15 16:55:00
12:59 PM,65.5,39.9,39,30.27,10.0,SSW,12.7,-,N/A,,Clear,200,2013-03-15 17:59:00
1:55 PM,66.4,44.6,45,30.23,10.0,SW,11.5,21.9,N/A,,Partly Cloudy,230,2013-03-15 18:55:00
2:59 PM,65.8,48.6,54,30.20,10.0,SW,15.0,20.7,N/A,,Partly Cloudy,230,2013-03-15 19:59:00
3:55 PM,66.2,44.4,45,30.18,10.0,SW,13.8,24.2,N/A,,Partly Cloudy,220,2013-03-15 20:55:00
4:55 PM,65.5,45.3,48,30.18,10.0,SSW,15.0,20.7,N/A,,Partly Cloudy,210,2013-03-15 21:55:00
5:56 PM,64.4,48.6,56,30.18,10.0,SW,10.4,-,N/A,,Partly Cloudy,220,2013-03-15 22:56:00
6:55 PM,61.7,49.5,64,30.18,10.0,SW,8.1,-,N/A,,Partly Cloudy,230,2013-03-15 23:55:00
7:56 PM,59.9,49.5,68,30.19,10.0,WSW,3.5,-,N/A,,Clear,240,2013-03-16 00:56:00
8:55 PM,58.5,49.3,72,30.19,10.0,WSW,4.6,-,N/A,,Clear,240,2013-03-16 01:55:00
9:55 PM,57.7,49.3,73,30.19,10.0,SW,4.6,-,N/A,,Clear,220,2013-03-16 02:55:00
10:55 PM,58.5,50.5,75,30.18,10.0,WSW,3.5,-,N/A,,Clear,240,2013-03-16 03:55:00
11:55 PM,58.5,51.3,77,30.17,10.0,SW,6.9,-,N/A,,Clear,220,2013-03-16 04:55:00